Kezdőlap
METAR-TAF:

METAR-TAF

Repülőterek :

Cape Dyer, Nunavut, Kanada

földrajzi szélesség: 66-35N, földrajzi hosszúság: 061-37W, magasság: 393 m

Jelenlegi meteorológiai megfigyelések

A jelentés 42 perccel ezelõtt készült, 19:00 UTC
Északi szél 35 kt széllökések: 54 kt
Hőmérséklet -17°C
Páratartalom 84%
Légköri nyomás 978 hPa
Szórványos felhőzet 300 lábon
Szórványos felhőzet 700 lábon

METAR: CWFD 241900Z AUTO 01035G54KT ////SM //// SCT003 SCT007 M17/M19 A2888

Idő: 15:42 (19:42 UTC)


TAF: hiányzik

Meteorológiai megfigyelések és előrejelzések több, mint 4000 repülőtéren (METAR és TAF jelentéseket).

A térképen piros és sárga pontok jelzik az elérhető meteorológiai állomásokat.

Mozgassa az egeret a pont fölött, hogy megjelenjen az állomás neve.

Azután kattintson az időjárási megfigyelések és előrejelzések megtekintéséhez.

A térkép megváltoztatása: kattintson a fekete keresztel jelölt zöld gombra ráközelítéshez, a vonallal jelölt zöld gombra távolításhoz, vagy a zöld nyilakra a szomszédos térképek eléréséhez.


METAR-TAF: